カタログに戻る

SL-8 DEB *

運用中LEO
NORAD 13500·DEBRIS·🇷🇺 Russia

打ち上げ Feb 17, 1978 から Plesetsk Cosmodrome

Loading…

次のパス (今後24時間)

TLE

最新Source: Space-Track

元期: Sep 14, 2026, 09:13 UTC

1 13500U 78019C   26257.38442248  .00003141  00000-0  38134-3 0  9992
2 13500  74.0508 249.8175 0008833 323.4253  36.6321 14.83977117639912

AllMySatでSL-8 DEB *をリアルタイム追跡

Download on the App Store